Wind_Speed
36 35 32 32 34 35 33 33 31 31 33 34 33 32 31 31 31 32 32 31 31 31 32 32 32 33 33 34 35 35 36 37 38 38 39 40 42 43 44 45 46 47 48 49
37 36 34 36 36 36 36 36 35 35 35 35 34 32 31 30 31 31 31 31 31 32 32 33 34 35 36 37 38 38 39 40 41 42 43 44 45 46 47 49 50 51 52 53
39 38 37 38 38 39 39 38 38 38 37 35 35 33 31 30 31 32 33 33 34 34 34 35 36 37 39 40 41 41 42 43 44 45 47 48 49 50 51 52 54 55 56 57
42 41 40 41 40 40 40 38 38 38 38 37 37 37 32 32 33 34 35 35 36 37 38 39 40 41 42 43 44 45 46 47 48 49 51 52 53 54 55 57 57 59 60 61
44 43 43 42 39 40 39 38 38 38 39 40 38 39 38 36 35 35 37 38 39 40 41 42 43 45 46 47 48 49 50 52 53 53 54 55 56 58 59 60 61 62 63 64
44 43 42 40 39 39 38 38 39 40 40 42 38 41 43 42 40 40 40 41 42 43 44 46 48 49 50 52 53 54 55 56 56 56 57 58 58 60 61 62 64 65 66 68
42 41 40 38 38 38 38 39 40 41 42 43 42 45 46 46 45 45 45 46 47 48 49 50 52 53 55 56 57 57 58 59 59 60 60 61 61 62 64 65 67 68 69 71
40 39 38 38 38 39 40 41 41 43 45 46 47 49 48 49 48 48 49 49 50 51 52 54 55 57 58 60 61 61 62 63 63 64 64 65 66 67 68 69 70 72 73 75
40 40 39 39 39 41 42 42 42 45 48 50 51 52 52 52 52 52 52 52 53 54 55 57 58 59 61 62 63 64 65 66 66 67 68 69 70 71 72 73 74 75 77 78
42 42 42 42 43 44 44 44 45 47 49 53 54 55 56 56 55 54 53 53 54 55 57 60 62 63 64 65 67 68 68 69 69 70 71 73 74 75 76 77 78 79 80 81
44 45 45 46 46 45 46 47 48 49 53 54 56 58 60 59 57 56 56 55 56 58 60 62 64 65 66 68 69 70 71 72 73 74 75 76 77 78 79 80 81 82 83 84
46 48 50 50 50 50 50 49 49 50 52 55 59 62 60 58 57 56 56 58 60 61 63 65 66 66 68 69 70 72 73 74 75 76 77 78 79 80 81 82 83 84 86 87
49 52 53 54 55 52 51 50 51 52 55 58 61 61 59 57 56 57 58 60 62 64 66 67 68 69 70 72 73 74 75 76 77 77 78 79 80 81 82 83 84 86 87 88
55 56 57 57 55 55 56 55 55 56 59 60 60 58 56 57 57 59 61 63 65 67 68 69 70 71 72 73 74 75 76 77 77 78 79 80 81 82 83 84 85 87 87 88
57 58 58 58 58 58 58 57 59 60 60 61 60 59 56 57 59 61 64 66 67 68 69 70 71 72 73 73 74 75 76 77 78 79 80 80 82 83 84 84 85 85 85 84
59 60 60 60 59 58 59 61 62 61 62 62 61 60 57 59 62 64 66 67 68 68 69 70 71 71 72 73 74 75 76 77 78 79 80 81 82 83 83 83 82 79 77 74
59 60 61 61 60 61 65 63 62 63 63 62 63 61 60 63 65 66 67 68 68 69 70 70 70 71 71 72 74 75 76 77 78 79 81 82 82 82 81 78 74 70 67 66
61 60 61 62 62 67 67 64 64 64 63 62 64 64 64 66 68 69 69 69 69 70 70 70 70 70 71 73 74 75 76 78 79 80 81 81 80 77 73 69 65 63 63 63
60 60 62 64 66 69 67 66 65 65 65 64 65 65 67 69 70 69 69 70 71 70 70 70 70 71 72 73 75 77 78 79 80 80 79 76 73 69 65 62 61 61 62 62
60 61 63 66 69 71 67 66 66 67 69 66 66 68 70 70 70 68 70 71 70 70 70 70 71 72 73 75 76 77 78 78 77 76 73 69 66 63 61 60 60 61 62 63
62 63 65 67 70 72 70 69 67 68 68 68 69 69 69 69 69 69 69 69 69 70 70 71 73 74 75 76 77 77 76 74 72 69 66 63 62 60 60 60 61 62 63 65
64 65 67 68 71 71 67 67 66 68 69 68 68 67 67 67 67 67 68 69 70 71 72 73 74 75 75 75 75 73 70 68 66 63 61 60 59 59 59 60 61 63 65 65
66 66 66 68 70 69 67 65 65 66 66 66 66 66 66 66 66 67 69 70 72 73 74 75 75 75 73 71 69 67 64 63 61 60 59 58 58 59 59 61 62 63 65 65
66 66 66 67 65 64 63 63 64 65 65 65 64 64 65 66 67 69 70 71 72 73 73 72 72 70 67 64 62 61 60 59 59 59 58 58 59 59 60 61 63 64 64 65
62 63 64 63 59 60 61 62 63 64 64 63 64 66 67 69 69 70 70 70 70 70 68 67 64 62 60 58 58 58 58 58 58 58 59 59 60 60 61 62 63 63 63 63
59 58 57 56 57 61 62 63 63 63 63 64 65 67 67 68 68 68 68 66 65 62 60 58 57 56 55 56 56 56 57 58 58 59 60 60 61 62 62 62 62 62 62 62
Wind_Direction
272 273 275 273 272 276 279 279 280 278 277 278 279 280 279 281 282 283 283 283 284 284 285 286 286 287 287 287 286 286 285 285 284 282 281 279 278 276 273 271 268 267 266 266
270 271 271 270 272 276 277 278 279 278 277 278 280 280 281 281 282 283 283 283 283 283 283 284 284 284 284 284 284 284 284 284 284 283 281 279 278 276 274 272 270 268 267 266
269 270 269 270 272 273 274 276 276 276 277 279 280 281 282 283 283 284 284 285 285 285 285 285 284 284 284 284 283 283 282 282 281 281 280 279 278 276 274 272 270 269 267 266
267 269 270 270 271 272 272 273 274 275 277 278 281 285 285 283 283 284 285 286 287 287 286 285 285 285 284 284 283 282 282 281 280 279 278 277 276 275 274 273 271 269 268 267
267 267 267 268 268 268 269 270 272 273 276 279 283 286 286 284 284 285 286 287 287 287 286 286 286 286 285 284 283 283 282 281 280 279 278 277 276 275 274 273 272 271 269 269
265 265 265 265 264 265 267 269 270 273 276 279 283 284 287 288 289 288 289 289 288 287 287 287 287 286 286 285 284 284 283 282 281 280 279 277 276 275 275 274 274 273 273 272
262 263 263 263 263 264 266 267 269 273 277 281 282 283 286 289 290 291 291 291 291 290 290 289 288 288 287 286 285 284 284 283 282 281 280 279 278 277 276 275 275 275 274 274
260 259 260 261 262 263 264 266 269 274 277 280 282 284 287 288 289 290 290 290 291 290 289 289 288 287 287 286 285 285 284 283 283 282 281 281 279 278 277 276 276 276 276 275
258 258 258 260 261 263 266 268 271 272 276 279 283 287 288 289 289 290 290 291 290 289 288 286 285 284 284 284 284 283 283 283 283 282 282 282 281 281 280 279 279 279 278 278
257 258 259 260 262 264 267 269 269 271 275 279 283 286 287 286 287 289 289 289 288 286 285 283 283 283 283 283 283 283 283 283 283 283 283 283 283 283 282 282 283 283 283 283
257 259 261 263 264 266 266 267 269 271 274 278 282 284 286 288 290 291 290 288 286 283 281 281 281 282 283 283 283 284 284 284 283 283 284 284 284 285 286 286 287 287 287 286
258 260 263 265 266 266 267 269 270 272 275 277 278 283 286 288 289 288 287 286 284 283 282 282 283 284 284 284 284 283 283 284 284 285 286 287 288 289 289 289 289 289 288 288
259 261 264 266 267 268 268 269 270 271 272 275 279 286 289 288 287 286 286 284 283 282 282 283 284 284 284 284 284 284 285 286 287 288 289 290 291 291 291 291 290 290 289 288
260 262 264 267 269 269 269 270 272 273 275 278 282 286 287 287 287 286 284 283 282 282 283 284 284 284 284 285 285 286 287 289 290 291 291 292 292 292 292 291 291 290 290 289
260 261 263 264 265 267 270 273 275 275 279 281 285 286 288 286 284 282 281 280 281 282 283 284 284 284 285 286 287 288 289 290 291 292 292 292 292 292 292 292 292 292 291 291
259 260 263 264 265 267 270 273 275 279 282 283 284 286 286 282 280 280 280 281 282 283 283 283 284 285 286 287 288 289 290 291 292 292 293 293 293 294 294 294 294 293 292 292
259 261 263 265 268 270 271 277 280 281 281 282 283 285 281 279 279 280 280 281 282 282 283 283 284 285 286 287 288 289 290 291 292 293 294 295 295 295 295 295 294 293 292 292
261 263 265 268 270 271 278 279 280 282 282 283 282 281 280 280 280 280 281 282 282 282 283 284 285 285 286 287 289 290 291 293 294 295 295 295 295 295 295 294 294 293 293 294
263 266 268 270 272 276 279 282 284 282 280 280 280 279 279 279 279 281 282 281 282 283 284 284 285 286 287 289 290 292 293 294 295 295 295 295 295 295 294 294 293 293 294 295
266 267 268 271 273 276 281 281 280 280 279 280 278 277 278 279 281 282 281 282 283 284 285 286 287 288 289 291 292 293 294 295 295 295 295 294 294 294 294 294 294 295 295 296
266 267 268 271 273 275 279 281 280 277 279 278 277 278 279 279 280 281 282 283 284 285 286 287 288 290 291 292 293 294 294 294 294 293 293 293 293 293 294 294 295 295 296 297
266 267 269 272 274 278 280 278 277 277 278 278 279 279 279 280 282 283 283 284 285 287 288 289 290 291 292 292 293 293 293 292 292 292 292 292 293 293 294 295 296 297 298 299
266 269 272 274 277 279 278 277 275 275 276 277 278 280 281 282 283 284 285 286 288 289 290 291 291 292 292 292 291 291 291 291 291 292 292 293 294 294 295 296 298 299 300 301
268 271 274 277 279 278 276 274 274 274 276 278 280 282 283 283 284 285 287 288 289 290 291 291 291 291 290 290 289 289 290 291 291 292 293 293 294 295 297 298 299 300 301 302
272 275 278 279 277 273 272 272 273 275 277 280 281 282 284 285 287 288 289 290 291 291 291 290 290 290 289 289 289 289 290 291 291 292 293 294 295 296 298 299 300 301 302 302
277 279 277 273 269 268 269 272 274 277 279 281 282 284 286 287 288 290 291 292 292 292 291 290 289 289 289 289 289 290 290 291 291 292 293 294 296 297 298 299 300 301 302 302
Height
5814 5816 5818 5818 5816 5816 5817 5817 5818 5819 5816 5815 5815 5815 5815 5814 5814 5814 5813 5812 5811 5810 5809 5808 5807 5806 5805 5804 5803 5802 5801 5799 5798 5796 5795 5793 5792 5790 5788 5786 5784 5782 5781 5779
5806 5808 5810 5808 5809 5809 5809 5808 5809 5809 5807 5806 5806 5807 5807 5807 5806 5806 5805 5804 5804 5803 5802 5801 5800 5799 5798 5796 5795 5794 5792 5791 5789 5787 5785 5783 5781 5779 5777 5775 5773 5771 5769 5767
5797 5799 5800 5801 5801 5800 5800 5800 5800 5799 5798 5797 5797 5798 5800 5799 5797 5797 5796 5796 5795 5795 5794 5792 5791 5790 5789 5787 5786 5784 5782 5781 5779 5777 5775 5773 5770 5768 5765 5763 5761 5758 5756 5754
5787 5789 5790 5791 5792 5791 5791 5791 5791 5790 5789 5788 5788 5788 5791 5790 5789 5788 5788 5787 5786 5785 5784 5783 5781 5780 5778 5777 5775 5773 5771 5769 5767 5765 5763 5761 5758 5755 5752 5750 5747 5744 5742 5740
5778 5779 5780 5781 5782 5781 5781 5782 5781 5781 5779 5779 5780 5779 5780 5781 5780 5780 5778 5777 5776 5775 5773 5772 5770 5768 5766 5764 5762 5760 5758 5756 5754 5752 5749 5747 5744 5741 5738 5735 5732 5730 5727 5724
5768 5768 5770 5771 5772 5772 5772 5772 5771 5770 5770 5770 5773 5770 5769 5769 5770 5769 5768 5767 5765 5763 5762 5760 5757 5755 5752 5750 5747 5745 5743 5741 5738 5736 5734 5732 5729 5726 5723 5720 5717 5714 5711 5708
5757 5758 5759 5761 5761 5762 5762 5762 5761 5760 5760 5761 5761 5759 5761 5759 5758 5757 5756 5753 5751 5750 5748 5745 5742 5739 5736 5734 5732 5729 5727 5725 5722 5720 5718 5716 5713 5710 5707 5703 5700 5697 5694 5690
5746 5748 5749 5750 5751 5751 5751 5751 5752 5752 5750 5750 5749 5749 5751 5749 5747 5745 5743 5741 5739 5737 5734 5730 5727 5724 5721 5718 5716 5713 5711 5708 5706 5703 5701 5698 5696 5692 5689 5686 5682 5679 5675 5671
5735 5737 5739 5740 5740 5741 5740 5740 5741 5739 5738 5738 5738 5738 5738 5736 5734 5733 5731 5729 5726 5723 5720 5716 5712 5709 5706 5703 5700 5697 5694 5691 5689 5686 5683 5680 5677 5674 5670 5666 5663 5659 5655 5651
5724 5725 5727 5728 5729 5729 5730 5730 5728 5727 5726 5725 5727 5728 5726 5724 5722 5721 5719 5716 5713 5710 5705 5701 5697 5693 5690 5687 5684 5680 5677 5674 5671 5668 5665 5662 5658 5654 5650 5647 5643 5638 5634 5630
5712 5714 5716 5717 5717 5718 5718 5718 5716 5715 5713 5713 5713 5717 5711 5711 5709 5707 5705 5702 5698 5694 5689 5685 5682 5678 5674 5671 5667 5663 5660 5657 5653 5650 5647 5643 5639 5635 5630 5626 5621 5617 5612 5607
5699 5700 5702 5704 5704 5704 5705 5706 5705 5703 5702 5699 5697 5703 5700 5700 5696 5693 5690 5686 5681 5677 5673 5669 5666 5663 5658 5654 5650 5646 5642 5638 5635 5631 5627 5623 5619 5614 5609 5604 5599 5594 5588 5583
5686 5686 5688 5688 5691 5692 5692 5693 5691 5689 5687 5683 5682 5688 5687 5684 5681 5678 5674 5669 5664 5660 5657 5654 5650 5647 5642 5637 5633 5628 5624 5619 5615 5611 5607 5603 5597 5592 5587 5582 5576 5570 5564 5558
5671 5671 5674 5676 5677 5677 5677 5678 5677 5674 5670 5668 5669 5673 5672 5667 5665 5661 5656 5651 5647 5644 5641 5638 5634 5629 5624 5619 5614 5610 5605 5600 5595 5591 5586 5582 5576 5571 5565 5559 5553 5546 5540 5533
5655 5656 5658 5660 5660 5660 5662 5664 5661 5657 5656 5654 5655 5656 5658 5652 5647 5643 5639 5635 5631 5629 5626 5621 5617 5612 5607 5601 5596 5591 5586 5581 5576 5571 5566 5561 5555 5549 5543 5536 5529 5522 5515 5509
5640 5641 5642 5643 5644 5644 5646 5649 5646 5644 5642 5639 5637 5639 5642 5634 5628 5625 5621 5617 5615 5612 5608 5604 5599 5595 5590 5584 5579 5573 5568 5562 5557 5551 5545 5539 5533 5526 5519 5513 5506 5499 5492 5486
5625 5626 5626 5627 5628 5625 5628 5637 5633 5629 5627 5625 5621 5625 5621 5615 5612 5608 5604 5601 5598 5594 5590 5586 5582 5578 5572 5567 5561 5556 5550 5543 5537 5531 5524 5517 5510 5503 5497 5490 5484 5478 5473 5467
5612 5612 5610 5610 5609 5605 5618 5620 5615 5611 5611 5609 5604 5603 5600 5596 5593 5591 5588 5584 5580 5576 5573 5569 5565 5560 5555 5549 5543 5537 5530 5524 5517 5509 5502 5495 5488 5482 5476 5470 5465 5460 5455 5450
5597 5597 5594 5592 5589 5589 5599 5600 5598 5592 5591 5592 5586 5584 5580 5576 5574 5575 5570 5565 5562 5559 5555 5551 5546 5542 5536 5530 5523 5517 5510 5503 5496 5488 5481 5474 5468 5462 5458 5453 5448 5443 5438 5433
5581 5580 5579 5576 5572 5572 5584 5583 5578 5573 5570 5576 5568 5564 5561 5559 5558 5560 5551 5548 5545 5541 5536 5532 5527 5522 5517 5510 5503 5497 5490 5483 5476 5468 5462 5455 5450 5445 5441 5437 5432 5426 5421 5416
5566 5564 5562 5560 5555 5556 5563 5563 5560 5553 5553 5552 5550 5547 5545 5543 5541 5538 5534 5531 5527 5522 5517 5512 5507 5503 5497 5490 5482 5476 5470 5463 5456 5450 5444 5439 5434 5430 5426 5421 5415 5410 5404 5399
5549 5548 5547 5545 5540 5545 5545 5540 5538 5533 5530 5530 5529 5528 5527 5526 5523 5519 5516 5512 5508 5503 5499 5493 5487 5483 5477 5470 5462 5456 5450 5444 5438 5433 5428 5424 5419 5415 5410 5405 5399 5393 5387 5381
5531 5533 5532 5530 5529 5527 5524 5521 5516 5513 5512 5511 5511 5510 5509 5507 5505 5501 5497 5493 5489 5484 5479 5473 5466 5462 5457 5450 5443 5437 5432 5427 5422 5417 5413 5408 5404 5399 5394 5389 5383 5376 5370 5364
5515 5516 5515 5514 5513 5507 5502 5498 5496 5494 5494 5494 5493 5492 5490 5488 5486 5483 5479 5475 5470 5465 5459 5453 5446 5441 5437 5431 5425 5420 5415 5411 5406 5402 5397 5393 5388 5383 5378 5372 5367 5360 5353 5347
5500 5500 5499 5496 5494 5486 5481 5479 5477 5476 5478 5478 5476 5473 5471 5468 5466 5463 5460 5456 5451 5446 5440 5433 5427 5422 5418 5414 5409 5404 5400 5395 5391 5387 5382 5377 5373 5368 5362 5356 5350 5344 5338 5331
5488 5486 5481 5477 5472 5465 5464 5463 5462 5461 5462 5460 5458 5456 5453 5449 5446 5443 5440 5437 5432 5427 5422 5416 5411 5406 5402 5398 5393 5389 5385 5380 5376 5371 5366 5361 5356 5351 5346 5341 5335 5328 5322 5316